Location: Rancho Del Sol Observatory
(38.7214°N, 120.6350°W)
Time: 21:30:30
(UTC-08:00)

Transit 4A - All Passes

Search period start: 26 January 2020 00:00
Search period end: 05 February 2020 00:00
Orbit: 872 x 973 km, 66.8° (Epoch: 26 January)

Date Brightness Start Highest point End Pass type
(mag) Time Alt. Az. Time Alt. Az. Time Alt. Az.
26 Jan - 05:05:23 10° SSE 05:10:33 30° ESE 05:15:38 10° NE visible
26 Jan - 06:51:02 10° SW 06:56:42 42° NW 07:02:17 10° NNE daylight
26 Jan - 14:08:58 10° N 14:13:53 27° NE 14:18:47 10° ESE daylight
26 Jan - 15:54:51 10° NW 16:00:24 48° WSW 16:06:01 10° S daylight
27 Jan - 05:13:59 10° S 05:19:43 46° ESE 05:25:21 10° NE visible
27 Jan - 07:01:04 10° WSW 07:06:13 29° NW 07:11:18 10° N daylight
27 Jan - 14:17:59 10° NNW 14:23:25 39° NE 14:28:52 10° ESE daylight
27 Jan - 16:04:33 10° NW 16:09:35 31° WSW 16:14:40 10° SSW daylight
28 Jan - 05:22:56 10° SSW 05:28:58 70° ESE 05:34:51 10° NNE visible
28 Jan - 07:11:27 10° W 07:15:50 21° NW 07:20:10 10° N daylight
28 Jan - 12:43:43 10° NNE 12:45:13 11° NE 12:46:43 10° NE daylight
28 Jan - 14:27:07 10° NNW 14:32:51 58° ENE 14:38:37 10° SE daylight
28 Jan - 16:14:36 10° WNW 16:18:41 20° WSW 16:22:48 10° SSW daylight
29 Jan - 03:49:35 10° SE 03:52:39 14° ESE 03:55:42 10° ENE visible
29 Jan - 05:32:13 10° SSW 05:38:16 79° WNW 05:44:12 10° NNE visible
29 Jan - 07:22:19 10° WNW 07:25:33 15° NW 07:28:45 10° N daylight
29 Jan - 12:51:38 10° N 12:55:01 16° NE 12:58:24 10° ENE daylight
29 Jan - 14:36:21 10° NNW 14:42:13 86° ENE 14:48:06 10° SSE daylight
29 Jan - 16:25:31 10° W 16:27:43 12° WSW 16:29:55 10° SW daylight
30 Jan - 03:57:08 10° SSE 04:01:42 23° ESE 04:06:13 10° ENE visible
30 Jan - 05:41:47 10° SW 05:47:39 53° WNW 05:53:25 10° NNE visible
30 Jan - 07:34:29 10° NW 07:35:22 10° NW 07:36:14 10° NNW daylight
30 Jan - 13:00:17 10° N 13:04:43 22° NE 13:09:09 10° E daylight
30 Jan - 14:45:45 10° NW 14:51:30 63° WSW 14:57:18 10° SSE daylight
31 Jan - 04:05:27 10° S 04:10:51 35° ESE 04:16:09 10° NE visible
31 Jan - 05:51:36 10° WSW 05:57:07 36° NW 06:02:32 10° NNE visible
31 Jan - 13:09:11 10° N 13:14:19 31° NE 13:19:27 10° ESE daylight
31 Jan - 14:55:18 10° NW 15:00:42 41° WSW 15:06:10 10° S daylight
01 Feb - 04:14:11 10° S 04:20:02 53° ESE 04:25:46 10° NE visible
01 Feb - 06:01:47 10° WSW 06:06:40 25° NW 06:11:30 10° N visible
01 Feb - 13:18:14 10° NNW 13:23:48 45° NE 13:29:24 10° SE daylight
01 Feb - 15:05:06 10° NW 15:09:51 26° WSW 15:14:40 10° SSW daylight
02 Feb - 02:43:33 10° ESE 02:43:53 10° E 02:44:12 10° E visible
02 Feb - 04:23:16 10° SSW 04:29:18 81° ESE 04:35:13 10° NNE visible
02 Feb - 06:12:19 10° W 06:16:18 18° NW 06:20:16 10° N visible
02 Feb - 11:43:21 10° NNE 11:45:45 12° NE 11:48:09 10° ENE daylight
02 Feb - 13:27:24 10° NNW 13:33:13 67° ENE 13:39:04 10° SE daylight
02 Feb - 15:15:20 10° WNW 15:18:56 17° WSW 15:22:34 10° SW daylight
03 Feb - 02:49:11 10° SE 02:52:54 17° ESE 02:56:34 10° ENE visible
03 Feb - 04:32:38 10° SW 04:38:38 69° WNW 04:44:31 10° NNE visible
03 Feb - 06:23:26 10° WNW 06:26:04 13° NW 06:28:40 10° NNW visible
03 Feb - 11:51:42 10° N 11:55:30 18° NE 11:59:20 10° E daylight
03 Feb - 13:36:42 10° NNW 13:42:33 82° WSW 13:48:27 10° SSE daylight
04 Feb - 02:57:05 10° SSE 03:01:59 27° ESE 03:06:49 10° NE visible
04 Feb - 04:42:17 10° SW 04:48:02 46° NW 04:53:42 10° NNE visible
04 Feb - 12:00:26 10° N 12:05:10 25° NE 12:09:54 10° ESE daylight
04 Feb - 13:46:08 10° NW 13:51:49 54° WSW 13:57:32 10° S daylight
